• Join FlightAware (Why Join?)
  • Login
  • US Flag 
12:37PM EST


 

Airport Tracker/Info


-or-


 

Live Flight TrackerFlight Track Log ✈ DAL2369 ✈ 24-Jul-2013 ✈ KATL - KMCO

Flight Track Log - Related Links

Times and Time Zones

All times are in EDT time to prevent confusion due to time zone crossing. See the DAL2369 flight status page for this flight to view local times or setup timezone preferences in your user account.

Time Position Orientation Groundspeed Altitude Reporting Facility
EDT Latitude Longitude Course Direction KTS MPH feet Rate Location/Type
01:01PM 33.6370 -84.4280 90° East 21 24  Level FlightAware
01:02PM 33.6370 -84.4220 90° East 18 21 398 Level FlightAware
01:02PM 33.6370 -84.4210 90° East 20 23 481 Level FlightAware
01:02PM 33.6360 -84.4200 140° Southeast 22 25 510 Level FlightAware
01:03PM 33.6360 -84.4160 90° East 24 28 545 Level FlightAware
01:03PM 33.6360 -84.4130 90° East 23 26 630 Level FlightAware
01:03PM 33.6360 -84.4110 90° East 23 26 739 Level FlightAware
01:04PM 33.6350 -84.4100 140° Southeast 26 30 829 Level FlightAware
01:05PM 33.6350 -84.4180 270° West 115 132 1,545 Level FlightAware
01:05PM 33.6350 -84.4340 270° West 175 201 2,429 Level FlightAware
01:06PM 33.6360 -84.4580 273° West 192 221 1,700 3,055 Climbing FlightAware
01:06PM 33.6360 -84.4950 270° West 219 252 2,800 1,714 Climbing FlightAware
01:06PM 33.6360 -84.5260 270° West 249 287 3,300 1,773 Climbing FlightAware
01:07PM 33.6340 -84.5550 265° West 263 303 4,100 2,438 Climbing FlightAware
01:07PM 33.6270 -84.5700 241° Southwest 270 311 4,600 2,571 Climbing FlightAware
01:07PM 33.6120 -84.5840 218° Southwest 282 325 5,300 2,600 Climbing FlightAware
01:07PM 33.5930 -84.5900 195° South 289 333 5,900 2,769 Climbing FlightAware
01:08PM 33.5760 -84.5930 188° South 293 337 6,500 2,684 Climbing FlightAware
01:08PM 33.5410 -84.5960 184° South 296 341 7,600 2,690 Climbing FlightAware
01:09PM 33.4970 -84.5990 183° South 303 349 9,100 2,379 Climbing FlightAware
01:09PM 33.4720 -84.5940 171° South 305 351 9,900 2,143 Climbing FlightAware
01:09PM 33.4490 -84.5810 155° Southeast 312 359 10,600 1,759 Climbing FlightAware
01:10PM 33.3890 -84.5260 143° Southeast 359 413 11,600 1,446 Climbing FlightAware
01:11PM 33.3340 -84.4750 142° Southeast 384 442 12,600 1,373 Climbing FlightAware
01:11PM 33.2900 -84.4360 143° Southeast 399 459 13,500 1,725 Climbing FlightAware
01:12PM 33.2340 -84.3840 142° Southeast 409 471 14,900 2,462 Climbing FlightAware
01:13PM 33.1560 -84.3130 143° Southeast 418 481 16,700 2,296 Climbing FlightAware
01:13PM 33.0890 -84.2530 143° Southeast 426 490 18,000 1,600 Climbing FlightAware
01:14PM 33.0350 -84.2050 143° Southeast 436 502 18,700 1,443 Climbing FlightAware
01:15PM 32.9550 -84.1540 152° Southeast 442 509 19,900 1,537 Climbing FlightAware
01:15PM 32.8830 -84.1230 160° South 448 516 20,800 1,500 Climbing FlightAware
01:16PM 32.7900 -84.0860 162° South 450 518 22,000 1,395 Climbing FlightAware
01:17PM 32.7140 -84.0550 161° South 458 527 22,800 606 Climbing FlightAware
01:18PM 32.6090 -84.0100 160° South 458 527 23,000 125 Climbing FlightAware
01:18PM 32.5480 -83.9840 160° South 458 527 23,000  Level FlightAware
01:19PM 32.4700 -83.9500 160° South 458 527 23,000 2,096 Level FlightAware
01:20PM 32.3550 -83.9070 162° South 472 543 25,900 3,000 Climbing FlightAware
01:20PM 32.2560 -83.8680 162° South 481 554 27,000 725 Climbing FlightAware
01:21PM 32.1700 -83.8330 161° South 481 554 27,000  Level FlightAware
01:22PM 32.1080 -83.8080 161° South 481 554 27,000  Level FlightAware
01:23PM 32.0240 -83.7730 161° South 481 554 27,000  Level FlightAware
01:23PM 31.9590 -83.7470 161° South 481 554 27,000  Level FlightAware
01:24PM 31.8930 -83.7200 161° South 481 554 27,000 2,645 Level FlightAware
01:25PM 31.7050 -83.6422 161° South 489 563 31,100 2,638 Climbing Jacksonville Center
01:26PM 31.5739 -83.5706 155° Southeast 495 570 32,100 950 Climbing Jacksonville Center
01:27PM 31.4594 -83.4892 149° Southeast 495 570 33,000 450 Climbing Jacksonville Center
01:28PM 31.3450 -83.4083 149° Southeast 489 563 33,000  Level Jacksonville Center
01:29PM 31.2283 -83.3275 149° Southeast 489 563 33,000 -350 Level Jacksonville Center
01:30PM 31.1094 -83.2444 149° Southeast 489 563 32,300 -850 Descending Jacksonville Center
01:31PM 30.9950 -83.1639 149° Southeast 489 563 31,300 -1,350 Descending Jacksonville Center
01:32PM 30.8803 -83.0814 148° Southeast 489 563 29,600 -2,050 Descending Jacksonville Center
01:33PM 30.7675 -83.0014 149° Southeast 489 563 27,200 -1,300 Descending Jacksonville Center
01:34PM 30.6633 -82.9311 150° Southeast 489 563 27,000 -100 Descending Jacksonville Center
01:35PM 30.5400 -82.8394 147° Southeast 489 563 27,000  Level Jacksonville Center
01:36PM 30.4292 -82.7600 148° Southeast 483 556 27,000  Level Jacksonville Center
01:37PM 30.3186 -82.6808 148° Southeast 483 556 27,000  Level Jacksonville Center
01:38PM 30.2119 -82.6114 151° Southeast 456 525 27,000  Level Jacksonville Center
01:39PM 30.1114 -82.5397 148° Southeast 437 503 27,000  Level Jacksonville Center
01:40PM 30.0111 -82.4656 147° Southeast 432 497 27,000  Level Jacksonville Center
01:41PM 29.9086 -82.3917 148° Southeast 432 497 27,000  Level Jacksonville Center
01:42PM 29.8081 -82.3253 150° Southeast 427 491 27,000  Level Jacksonville Center
01:43PM 29.7075 -82.2517 148° Southeast 427 491 27,000 -800 Level Jacksonville Center
01:44PM 29.6047 -82.1736 147° Southeast 432 497 25,400 -2,100 Descending Jacksonville Center
01:45PM 29.5167 -82.0836 138° Southeast 432 497 22,800 -2,850 Descending Jacksonville Center
01:46PM 29.4303 -82.0008 140° Southeast 417 480 19,700 -2,850 Descending Jacksonville Center
01:47PM 29.3422 -81.9278 144° Southeast 406 467 17,100 -2,050 Descending Jacksonville Center
01:48PM 29.2458 -81.8811 157° South 392 451 15,600 -1,750 Descending Jacksonville Center
01:49PM 29.1433 -81.8561 168° South 374 430 13,600 -1,800 Descending Jacksonville Center
01:50PM 29.0450 -81.8333 169° South 374 430 12,000 -640 Descending Jacksonville Center
01:56PM 28.6120 -81.4220 169° South 318 366 9,000 -470 Descending FlightAware
01:56PM 28.6010 -81.4110 139° Southeast 319 367 9,000  Level FlightAware
01:57PM 28.5740 -81.3220 109° East 321 369 9,000  Level FlightAware
01:57PM 28.5700 -81.3070 107° East 320 368 9,000  Level FlightAware
01:58PM 28.5580 -81.2530 104° East 324 373 9,000  Level FlightAware
01:58PM 28.5520 -81.2300 107° East 326 375 9,000  Level FlightAware
01:58PM 28.5400 -81.1790 105° East 296 341 9,000  Level FlightAware
01:59PM 28.5350 -81.1630 110° East 284 327 9,000  Level FlightAware
01:59PM 28.5260 -81.1470 123° Southeast 271 312 9,000  Level FlightAware
01:59PM 28.5080 -81.1360 152° Southeast 258 297 9,000 -286 Level FlightAware
02:00PM 28.4600 -81.1240 168° South 251 289 8,700 -716 Descending FlightAware
02:00PM 28.4300 -81.1170 168° South 232 267 8,200 -1,556 Descending FlightAware
02:01PM 28.3970 -81.1130 174° South 217 250 7,300 -1,636 Descending FlightAware
02:01PM 28.3870 -81.1130 180° South 213 245 7,000 -1,667 Descending FlightAware
02:01PM 28.3630 -81.1120 178° South 204 235 6,300 -2,000 Descending FlightAware
02:02PM 28.3350 -81.1140 184° South 201 231 5,200 -2,034 Descending FlightAware
02:02PM 28.3060 -81.1190 189° South 204 235 4,300 -1,241 Descending FlightAware
02:03PM 28.2810 -81.1240 190° South 208 239 4,000 -346 Descending FlightAware
02:03PM 28.2570 -81.1280 188° South 209 241 4,000  Level FlightAware
02:04PM 28.2440 -81.1330 199° South 199 229 4,000  Level FlightAware
02:04PM 28.2270 -81.1440 210° Southwest 199 229 4,000 -536 Level FlightAware
02:07PM 28.3320 -81.2780 312° West 194 223 1,900 -644 Descending FlightAware
02:08PM 28.3580 -81.2780 360° North 180 207 1,500 -896 Descending FlightAware
02:09PM 28.3890 -81.2780 360° North 149 171 900 -514 Descending FlightAware
02:09PM 28.4040 -81.2780 360° North 149 171 900  Level FlightAware